FW1737 Weather Reports


Display with metric or nautical units.
time (UTC)temp
F
wind
direction
speed
MPH
gust
MPH
rain 1hr
in
rain 24hr
in
rain mn
in
humidity
%
barometer
mb
20200410103030 32 68 5.0 9.0 0.00 0.00 0.00 98 982.8
20200410102514 32 78 3.0 10.0 0.00 0.00 0.00 98 983.1
20200410102031 32 96 7.0 10.0 0.00 0.00 0.00 98 983.4
20200410101508 32 58 5.0 10.0 0.00 0.00 0.00 98 983.3
20200410101007 32 80 7.0 12.0 0.00 0.00 0.00 98 983.5
20200410100506 32 69 5.0 14.0 0.00 0.00 0.00 98 983.8
20200410100008 32 74 5.0 14.0 0.00 0.00 0.00 98 983.8
20200410095504 32 56 8.0 17.0 0.00 0.00 0.00 98 984.1
20200410095005 32 83 9.0 16.0 0.00 0.00 0.00 98 984.3
20200410094510 32 88 8.0 19.0 0.00 0.00 0.00 98 984.6
20200410094001 32 66 11.0 22.0 0.00 0.00 0.00 98 984.7
20200410093604 32 73 10.0 22.0 0.00 0.00 0.00 98 985.1
20200410093154 32 76 6.0 20.0 0.00 0.00 0.00 98 985.4
20200410092557 32 71 12.0 20.0 0.00 0.00 0.00 98 985.9
20200410092058 32 74 9.0 15.0 0.00 0.00 0.00 97 986.0
20200410091103 32 62 12.0 18.0 0.00 0.00 0.00 97 986.0
20200410090609 32 65 8.0 17.0 0.00 0.00 0.00 97 986.1
20200410090147 32 86 11.0 20.0 0.00 0.00 0.00 97 985.9
20200410085555 32 55 13.0 21.0 0.00 0.00 0.00 97 986.2
20200410085054 32 63 12.0 22.0 0.00 0.00 0.00 97 986.7
20200410084625 32 89 13.0 26.0 0.00 0.00 0.00 97 987.1
20200410084052 32 57 12.0 26.0 0.00 0.00 0.00 97 987.4
20200410083551 32 71 17.0 26.0 0.00 0.00 0.00 97 987.6
20200410083218 32 77 14.0 26.0 0.00 0.00 0.00 97 988.0
20200410082548 32 117 16.0 26.0 0.00 0.00 0.00 97 988.1
20200410082107 32 65 14.0 26.0 0.00 0.00 0.00 97 988.6
20200410081640 32 63 13.0 26.0 0.00 0.00 0.00 96 988.6
20200410081052 32 67 13.0 26.0 0.00 0.00 0.00 96 989.1
20200410080552 32 69 15.0 23.0 0.00 0.00 0.00 96 989.5
20200410080442 32 72 15.0 23.0 0.00 0.00 0.00 96 989.9
20200410075540 32 72 16.0 24.0 0.00 0.00 0.00 95 990.3
20200410075039 32 90 15.0 25.0 0.00 0.00 0.00 95 990.8
20200410074639 32 79 15.0 25.0 0.00 0.00 0.00 94 990.9
20200410074036 32 61 15.0 21.0 0.00 0.00 0.00 93 991.2
20200410073534 32 84 15.0 21.0 0.00 0.00 0.00 91 991.4
20200410073125 32 91 14.0 26.0 0.00 0.00 0.00 89 991.7
20200410072532 32 85 15.0 26.0 0.00 0.00 0.00 87 991.9
20200410072030 32 61 14.0 20.0 0.00 0.00 0.00 86 992.3
20200410071531 32 108 13.0 20.0 0.00 0.00 0.00 85 992.6
20200410071031 32 78 12.0 19.0 0.00 0.00 0.00 85 992.8
20200410070538 32 78 12.0 19.0 0.00 0.00 0.00 85 992.9
20200410070031 32 74 11.0 17.0 0.00 0.00 0.00 85 993.2
20200410065525 32 87 12.0 17.0 0.00 0.00 0.00 85 993.4
20200410065024 32 63 10.0 17.0 0.00 0.00 0.00 85 993.7
20200410064526 32 65 10.0 19.0 0.00 0.00 0.00 85 994.0
20200410064022 32 67 10.0 19.0 0.00 0.00 0.00 85 994.2
20200410063533 32 57 9.0 17.0 0.00 0.00 0.00 85 994.5
20200410063021 32 98 10.0 16.0 0.00 0.00 0.00 85 994.6
20200410062519 32 51 7.0 17.0 0.00 0.00 0.00 86 994.9
20200410062023 32 67 10.0 17.0 0.00 0.00 0.00 86 995.3
20200410061522 32 82 10.0 16.0 0.00 0.00 0.00 85 995.3
20200410061035 32 87 9.0 17.0 0.00 0.00 0.00 86 995.4
20200410060515 32 68 12.0 17.0 0.00 0.00 0.00 86 995.7
20200410060024 32 81 8.0 13.0 0.00 0.00 0.00 86 995.6
20200410055514 32 64 8.0 14.0 0.00 0.00 0.00 86 995.8
20200410055012 32 79 9.0 14.0 0.00 0.00 0.00 86 996.0
20200410054546 32 63 10.0 14.0 0.00 0.00 0.00 86 996.2
20200410054011 32 66 7.0 12.0 0.00 0.00 0.00 86 996.6
20200410053512 32 66 7.0 12.0 0.00 0.00 0.00 86 996.7
20200410053010 32 63 6.0 14.0 0.00 0.00 0.00 86 996.6
20200410052510 32 65 9.0 15.0 0.00 0.00 0.00 86 996.7
20200410052008 32 79 9.0 15.0 0.00 0.00 0.00 86 997.1
20200410051509 32 69 10.0 15.0 0.00 0.00 0.00 85 997.2
20200410051011 32 50 7.0 13.0 0.00 0.00 0.00 85 997.3
20200410050506 33 21 8.0 13.0 0.00 0.00 0.00 85 997.7
20200410050023 33 69 8.0 17.0 0.00 0.00 0.00 84 997.7
20200410045508 33 67 11.0 17.0 0.00 0.00 0.00 84 997.9
20200410045005 33 74 10.0 15.0 0.00 0.00 0.00 83 997.8
20200410044506 33 72 10.0 16.0 0.00 0.00 0.00 83 998.0
20200410044106 33 80 8.0 18.0 0.00 0.00 0.00 83 998.3
20200410043558 33 76 12.0 18.0 0.00 0.00 0.00 82 998.5
20200410043234 33 71 9.0 18.0 0.00 0.00 0.00 83 998.6
20200410042555 33 83 8.0 15.0 0.00 0.00 0.00 84 999.0
20200410042059 33 66 8.0 12.0 0.00 0.00 0.00 84 999.1
20200410041634 33 87 5.0 12.0 0.00 0.00 0.00 83 999.3
20200410041056 33 68 7.0 12.0 0.00 0.00 0.00 83 999.5
20200410040551 33 107 7.0 12.0 0.00 0.00 0.00 83 999.8
20200410040201 33 86 7.0 11.0 0.00 0.00 0.00 83 999.6
20200410035550 33 75 6.0 10.0 0.00 0.00 0.00 84 999.8
20200410035049 33 92 4.0 12.0 0.00 0.00 0.00 84 999.8
20200410034611 33 104 7.0 12.0 0.00 0.00 0.00 84 1000.0
20200410034047 33 107 5.0 11.0 0.00 0.00 0.00 84 1000.2
20200410033548 33 96 7.0 13.0 0.00 0.00 0.00 83 1000.5
20200410033134 33 82 9.0 13.0 0.00 0.00 0.00 83 1000.5
20200410032543 33 81 9.0 13.0 0.00 0.00 0.00 83 1000.6
20200410032042 33 82 5.0 10.0 0.00 0.00 0.00 82 1000.8
20200410031629 33 111 6.0 11.0 0.00 0.00 0.00 83 1000.9
20200410031040 33 138 6.0 12.0 0.00 0.00 0.00 83 1001.2
20200410030539 33 116 5.0 12.0 0.00 0.00 0.00 83 1001.3
20200410030204 33 98 4.0 10.0 0.00 0.00 0.00 83 1001.3
20200410025546 33 86 2.0 10.0 0.00 0.00 0.00 84 1001.4
20200410025044 33 92 5.0 10.0 0.00 0.00 0.00 84 1001.6
20200410024701 33 78 4.0 8.0 0.00 0.00 0.00 83 1001.8
20200410024041 33 78 3.0 9.0 0.00 0.00 0.00 83 1001.9
20200410023536 33 111 7.0 9.0 0.00 0.00 0.00 82 1002.1
20200410023132 33 165 4.0 8.0 0.00 0.00 0.00 82 1002.5
20200410022553 33 109 3.0 8.0 0.00 0.00 0.00 82 1002.7
20200410022037 33 182 3.0 9.0 0.00 0.00 0.00 82 1003.0
20200410021652 33 156 3.0 9.0 0.00 0.00 0.00 82 1002.9
20200410021038 33 152 4.0 8.0 0.00 0.00 0.00 82 1003.2
20200410020531 33 140 5.0 10.0 0.00 0.00 0.00 81 1003.5
20200410020103 33 140 4.0 10.0 0.00 0.00 0.00 81 1003.5
20200410015533 33 142 3.0 8.0 0.00 0.00 0.00 80 1003.4
20200410015030 33 161 3.0 8.0 0.00 0.00 0.00 80 1003.5
20200410014540 33 140 2.0 4.0 0.00 0.00 0.00 79 1003.2
20200410014030 33 95 0.0 2.0 0.00 0.00 0.00 78 1002.9
20200410013530 33 95 0.0 3.0 0.00 0.00 0.00 78 1002.9
20200410013051 33 95 1.0 3.0 0.00 0.00 0.00 78 1003.0
20200410012530 33 115 1.0 5.0 0.00 0.00 0.00 78 1003.1
20200410012036 33 109 2.0 7.0 0.00 0.00 0.00 77 1003.0
20200410011529 33 152 3.0 7.0 0.00 0.00 0.00 76 1003.2
20200410011029 33 191 1.0 3.0 0.00 0.00 0.00 76 1003.3
20200410010539 33 130 0.0 3.0 0.00 0.00 0.00 75 1003.4
20200410010135 33 150 1.0 4.0 0.00 0.00 0.00 74 1003.3
20200410005532 33 101 2.0 4.0 0.00 0.00 0.00 74 1003.4
20200410005048 33 142 1.0 4.0 0.00 0.00 0.00 73 1003.5
20200410004603 33 131 2.0 4.0 0.00 0.00 0.00 73 1003.7
20200410004028 34 120 1.0 3.0 0.00 0.00 0.00 72 1003.6
20200410003533 34 155 0.0 2.0 0.00 0.00 0.00 71 1003.6
20200410003051 34 155 0.0 3.0 0.00 0.00 0.00 71 1003.9
20200410002603 34 155 0.0 6.0 0.00 0.00 0.00 70 1003.9
20200410002028 34 124 3.0 6.0 0.00 0.00 0.00 71 1004.1
20200410001531 34 153 1.0 6.0 0.00 0.00 0.00 71 1004.0
20200410001033 34 242 2.0 4.0 0.00 0.00 0.00 70 1004.1
20200410000054 34 182 5.0 7.0 0.00 0.00 0.00 70 1004.1
20200409235526 34 123 4.0 6.0 0.00 0.00 0.00 69 1004.0
20200409235035 34 153 3.0 7.0 0.00 0.00 0.00 68 1004.1
20200409234607 34 172 2.0 7.0 0.00 0.00 0.00 67 1004.0
20200409234023 34 180 1.0 6.0 0.00 0.00 0.00 66 1004.0
20200409233522 34 188 3.0 7.0 0.00 0.00 0.00 65 1004.0
20200409233022 34 185 3.0 7.0 0.00 0.00 0.00 64 1003.9
20200409232519 34 166 4.0 9.0 0.00 0.00 0.00 62 1003.7
20200409232019 34 184 2.0 9.0 0.00 0.00 0.00 61 1003.6
20200409231546 34 211 3.0 6.0 0.00 0.00 0.00 60 1003.5
20200409231019 35 161 3.0 8.0 0.00 0.00 0.00 58 1003.5
20200409230518 35 157 4.0 9.0 0.00 0.00 0.00 56 1003.5
20200409230035 35 160 6.0 9.0 0.00 0.00 0.00 54 1003.4
20200409225026 35 184 5.0 7.0 0.00 0.00 0.00 53 1003.3
20200409224540 35 223 3.0 6.0 0.00 0.00 0.00 50 1003.2
20200409224017 35 205 3.0 6.0 0.00 0.00 0.00 49 1003.2
20200409223517 36 176 3.0 11.0 0.00 0.00 0.00 47 1003.1
20200409223033 36 192 4.0 11.0 0.00 0.00 0.00 47 1003.0
20200409222521 36 196 2.0 7.0 0.00 0.00 0.00 50 1002.9
20200409222024 36 172 3.0 9.0 0.00 0.00 0.00 49 1002.9
20200409221535 36 173 4.0 9.0 0.00 0.00 0.00 48 1002.9
20200409221023 37 182 5.0 8.0 0.00 0.00 0.00 47 1002.8
20200409220516 37 130 4.0 10.0 0.00 0.00 0.00 47 1002.7
20200409220026 37 171 6.0 10.0 0.00 0.00 0.00 46 1002.8
20200409215516 37 191 6.0 10.0 0.00 0.00 0.00 46 1002.6
20200409215034 37 167 5.0 9.0 0.00 0.00 0.00 46 1002.7
20200409214525 38 111 4.0 8.0 0.00 0.00 0.00 46 1002.7
20200409214021 38 130 3.0 10.0 0.00 0.00 0.00 45 1002.7
20200409213519 38 173 6.0 13.0 0.00 0.00 0.00 44 1002.6
20200409212533 38 147 7.0 12.0 0.00 0.00 0.00 46 1002.7
20200409212014 39 148 8.0 12.0 0.00 0.00 0.00 45 1002.8
20200409211525 39 157 4.0 13.0 0.00 0.00 0.00 48 1002.6
20200409211016 39 173 7.0 13.0 0.00 0.00 0.00 47 1002.6
20200409210513 40 189 5.0 11.0 0.00 0.00 0.00 48 1002.6
20200409210014 40 170 8.0 12.0 0.00 0.00 0.00 48 1002.5
20200409205013 40 139 6.0 12.0 0.00 0.00 0.00 48 1002.6
20200409204530 41 165 8.0 12.0 0.00 0.00 0.00 46 1002.6
20200409204016 41 140 3.0 10.0 0.00 0.00 0.00 48 1002.6
20200409203512 41 169 6.0 10.0 0.00 0.00 0.00 46 1002.6
20200409203015 41 166 6.0 12.0 0.00 0.00 0.00 48 1002.7
20200409202517 41 213 7.0 12.0 0.00 0.00 0.00 46 1002.7
20200409202010 41 196 4.0 11.0 0.00 0.00 0.00 49 1002.8
20200409201511 41 186 7.0 16.0 0.00 0.00 0.00 49 1002.9
20200409201015 41 236 7.0 15.0 0.00 0.00 0.00 47 1002.8
20200409200509 41 222 10.0 19.0 0.00 0.00 0.00 46 1003.0
20200409200029 41 194 10.0 19.0 0.00 0.00 0.00 48 1003.0
20200409195515 41 188 8.0 15.0 0.00 0.00 0.00 47 1003.2
20200409195007 42 203 10.0 14.0 0.00 0.00 0.00 45 1003.2
20200409194510 42 174 9.0 15.0 0.00 0.00 0.00 45 1003.2
20200409194023 42 211 7.0 17.0 0.00 0.00 0.00 48 1003.3
20200409193510 43 212 5.0 15.0 0.00 0.00 0.00 43 1003.4
20200409193012 44 192 4.0 9.0 0.00 0.00 0.00 39 1003.5
20200409192516 45 88 3.0 7.0 0.00 0.00 0.00 32 1003.4
20200409192015 45 247 2.0 8.0 0.00 0.00 0.00 34 1003.4
20200409191524 46 190 3.0 7.0 0.00 0.00 0.00 34 1003.2
20200409191006 46 273 4.0 8.0 0.00 0.00 0.00 30 1003.3
20200409190508 46 225 3.0 6.0 0.00 0.00 0.00 31 1003.2
20200409190007 46 219 2.0 6.0 0.00 0.00 0.00 32 1003.4
20200409185509 46 9 1.0 9.0 0.00 0.00 0.00 28 1003.3
20200409185028 46 243 2.0 11.0 0.00 0.00 0.00 36 1003.4
20200409184607 46 207 5.0 11.0 0.00 0.00 0.00 29 1003.4
20200409184005 46 11 5.0 9.0 0.00 0.00 0.00 32 1003.3
20200409183504 46 141 1.0 7.0 0.00 0.00 0.00 34 1003.3
20200409183003 46 258 2.0 10.0 0.00 0.00 0.00 34 1003.5
20200409182502 45 291 4.0 10.0 0.00 0.00 0.00 32 1003.8
20200409182004 45 251 2.0 14.0 0.00 0.00 0.00 35 1003.9
20200409181501 45 281 7.0 14.0 0.00 0.00 0.00 30 1003.8
20200409181001 45 261 2.0 11.0 0.00 0.00 0.00 32 1003.9
20200409180600 45 242 4.0 11.0 0.00 0.00 0.00 35 1004.0
20200409180159 44 293 4.0 13.0 0.00 0.00 0.00 32 1004.0
20200409175606 44 294 6.0 13.0 0.00 0.00 0.00 35 1003.9
20200409175059 44 269 5.0 12.0 0.00 0.00 0.00 31 1003.9
20200409174618 44 316 5.0 15.0 0.00 0.00 0.00 33 1003.9
20200409174059 44 319 8.0 15.0 0.00 0.00 0.00 32 1004.0
20200409173617 44 273 5.0 11.0 0.00 0.00 0.00 33 1004.0
20200409173129 44 246 5.0 14.0 0.00 0.00 0.00 30 1004.0
20200409172558 44 219 5.0 14.0 0.00 0.00 0.00 33 1004.1
20200409172057 44 271 7.0 10.0 0.00 0.00 0.00 35 1004.0
20200409171627 44 47 3.0 11.0 0.00 0.00 0.00 35 1004.0
20200409171056 44 293 5.0 12.0 0.00 0.00 0.00 34 1004.0
20200409170600 44 234 4.0 11.0 0.00 0.00 0.00 34 1003.9
20200409170103 44 296 2.0 9.0 0.00 0.00 0.00 35 1003.9
20200409165605 44 271 5.0 13.0 0.00 0.00 0.00 32 1003.9
20200409165102 43 257 3.0 13.0 0.00 0.00 0.00 38 1003.9
20200409164607 43 305 4.0 11.0 0.00 0.00 0.00 37 1003.9
20200409164053 42 242 5.0 12.0 0.00 0.00 0.00 36 1003.9
20200409163556 42 314 6.0 12.0 0.00 0.00 0.00 33 1004.0
20200409163127 43 297 7.0 10.0 0.00 0.00 0.00 37 1004.1
20200409162550 43 309 5.0 12.0 0.00 0.00 0.00 33 1004.1
20200409162050 42 239 5.0 16.0 0.00 0.00 0.00 43 1004.1
20200409161623 42 243 6.0 16.0 0.00 0.00 0.00 42 1004.2
20200409161102 42 279 4.0 13.0 0.00 0.00 0.00 39 1004.1
20200409160613 41 307 5.0 14.0 0.00 0.00 0.00 40 1004.2
20200409160146 42 225 6.0 16.0 0.00 0.00 0.00 41 1004.2
20200409155548 42 266 9.0 16.0 0.00 0.00 0.00 41 1004.3
20200409155112 42 264 5.0 13.0 0.00 0.00 0.00 45 1004.3
20200409154628 42 276 4.0 11.0 0.00 0.00 0.00 41 1004.3
20200409154046 42 325 5.0 11.0 0.00 0.00 0.00 43 1004.2
20200409153604 42 327 2.0 12.0 0.00 0.00 0.00 44 1004.1
20200409153104 42 320 6.0 12.0 0.00 0.00 0.00 38 1004.2
20200409152604 42 234 6.0 12.0 0.00 0.00 0.00 45 1004.1
20200409152042 42 311 6.0 10.0 0.00 0.00 0.00 41 1004.1
20200409151657 42 273 3.0 9.0 0.00 0.00 0.00 38 1004.0
20200409151049 42 24 5.0 9.0 0.00 0.00 0.00 42 1003.9
20200409150539 41 300 4.0 11.0 0.00 0.00 0.00 45 1003.8
20200409150141 41 259 5.0 11.0 0.00 0.00 0.00 42 1003.9
20200409145539 40 297 1.0 13.0 0.00 0.00 0.00 39 1004.1
20200409145038 41 201 5.0 13.0 0.00 0.00 0.00 42 1004.1
20200409144618 41 223 5.0 12.0 0.00 0.00 0.00 43 1004.1
20200409144035 41 269 2.0 11.0 0.00 0.00 0.00 43 1004.2
20200409143538 41 284 3.0 11.0 0.00 0.00 0.00 45 1004.3
20200409143112 41 310 3.0 9.0 0.00 0.00 0.00 44 1004.5
20200409142531 40 259 4.0 10.0 0.00 0.00 0.00 39 1004.4
20200409142032 40 338 3.0 12.0 0.00 0.00 0.00 43 1004.5
20200409141640 39 202 3.0 12.0 0.00 0.00 0.00 47 1004.6
20200409141027 39 242 4.0 12.0 0.00 0.00 0.00 40 1004.7
20200409140526 39 210 6.0 10.0 0.00 0.00 0.00 41 1004.7
20200409140103 39 202 5.0 11.0 0.00 0.00 0.00 43 1004.7
20200409135530 39 311 2.0 9.0 0.00 0.00 0.00 46 1004.7
20200409135022 39 307 3.0 9.0 0.00 0.00 0.00 44 1004.9
20200409134532 39 206 1.0 9.0 0.00 0.00 0.00 48 1004.9
20200409134021 38 355 5.0 9.0 0.00 0.00 0.00 47 1004.8
20200409133534 38 232 3.0 9.0 0.00 0.00 0.00 53 1004.9
20200409133059 37 275 2.0 10.0 0.00 0.00 0.00 53 1004.9
20200409132539 37 303 5.0 10.0 0.00 0.00 0.00 53 1005.0
20200409132014 37 275 4.0 10.0 0.00 0.00 0.00 56 1005.1
20200409131515 37 294 4.0 9.0 0.00 0.00 0.00 56 1005.2
20200409131013 36 257 5.0 10.0 0.00 0.00 0.00 57 1005.2
20200409130509 36 242 6.0 10.0 0.00 0.00 0.00 57 1005.2
20200409130009 36 306 4.0 8.0 0.00 0.00 0.00 62 1005.2
20200409125506 35 264 3.0 11.0 0.00 0.00 0.00 62 1005.2
20200409125005 35 294 4.0 11.0 0.00 0.00 0.00 61 1005.2
20200409124505 35 270 3.0 10.0 0.00 0.00 0.00 66 1005.2
20200409124002 35 254 3.0 10.0 0.00 0.00 0.00 69 1005.3
20200409123500 34 244 3.0 9.0 0.00 0.00 0.00 71 1005.3
20200409123133 34 201 5.0 8.0 0.00 0.00 0.00 74 1005.3
20200409122558 34 261 3.0 9.0 0.00 0.00 0.00 76 1005.2
20200409122057 33 251 2.0 6.0 0.00 0.00 0.00 80 1005.1
20200409121610 32 194 0.0 3.0 0.00 0.00 0.00 84 1005.0
20200409121053 31 136 2.0 3.0 0.00 0.00 0.00 85 1005.0
20200409120603 30 136 1.0 3.0 0.00 0.00 0.00 86 1005.0
20200409120119 30 136 1.0 3.0 0.00 0.00 0.00 87 1004.9
20200409115604 29 136 1.0 3.0 0.00 0.00 0.00 88 1004.8
20200409115048 28 137 2.0 3.0 0.00 0.00 0.00 89 1004.8
20200409114629 28 185 2.0 3.0 0.00 0.00 0.00 88 1004.8
20200409114045 27 222 1.0 3.0 0.00 0.00 0.00 89 1004.7
20200409113611 27 222 1.0 2.0 0.00 0.00 0.00 90 1004.7
20200409113048 26 222 1.0 2.0 0.00 0.00 0.00 91 1004.6
20200409112541 25 222 0.0 0.0 0.00 0.00 0.00 91 1004.6
20200409112043 24 222 0.0 0.0 0.00 0.00 0.00 91 1004.5
20200409111609 23 222 0.0 0.0 0.00 0.00 0.00 92 1004.4
20200409111043 22 222 0.0 2.0 0.00 0.00 0.00 92 1004.3
20200409110540 22 222 0.0 2.0 0.00 0.00 0.00 93 1004.3
20200409110047 22 222 1.0 2.0 0.00 0.00 0.00 93 1004.3
20200409105536 21 222 0.0 0.0 0.00 0.00 0.00 93 1004.2
20200409105048 21 222 0.0 0.0 0.00 0.00 0.00 94 1004.2
20200409104535 20 222 0.0 0.0 0.00 0.00 0.00 94 1004.2
20200409104038 20 222 0.0 1.0 0.00 0.00 0.00 94 1004.1
20200409103533 20 222 0.0 1.0 0.00 0.00 0.00 94 1004.1